[[{"header":{"parameterUnit":"m.s-1","parameterCategory":1,"la1":30.2992,"la2":30.254,"lo1":-89.0895,"lo2":-89.0443,"dy":0.0025,"dx":0.0025,"nx":19,"ny":19,"refTime":"2026-04-28T09:00:00:Z","depth":0,"parameterNumber":2,"parameterNumberName":"U-component_of_WINDS"},"data":[0,0,0,-2.2781,-2.2783,-2.2882,-2.2883,-2.3004,-2.3005,0,0,0,0,0,0,0,0,0,0,0,-2.2747,-2.2748,-2.2781,-2.2783,-2.2882,-2.2883,-2.3004,-2.3005,0,0,0,0,0,0,0,0,0,0,0,-2.2747,-2.2748,-2.2748,-2.2784,-2.2882,-2.2883,-2.3003,-2.2931,0,0,0,0,0,0,0,0,0,0,-2.2836,-2.2799,-2.2747,-2.2748,-2.2784,-2.2882,-2.2883,-2.2928,-2.2935,-2.2956,0,-2.2972,0,-2.299,-2.3012,-2.3013,0,0,0,-2.2787,-2.2793,-2.2824,-2.2749,-2.2785,-2.2882,-2.2839,-2.2932,-2.2941,-2.2967,-2.2974,-2.2979,-2.2992,-2.3013,-2.3014,-2.3118,-2.3118,0,0,-2.2782,-2.2763,-2.2818,-2.2829,-2.2812,-2.2836,-2.2842,-2.2938,-2.2945,-2.2974,-2.2982,-2.2994,-2.3014,-2.3015,-2.3118,-2.3118,0,0,0,-2.2763,-2.2759,-2.2787,-2.2824,-2.2842,-2.2838,-2.2845,-2.2941,-2.2951,-2.2983,-2.2996,-2.3015,-2.3016,-2.3117,-2.3118,-2.3114,0,0,0,-2.276,-2.2748,-2.2785,-2.2774,-2.284,-2.2892,-2.2846,-2.2945,-2.2956,-2.2995,-2.3015,-2.3017,-2.3117,-2.3118,-2.3113,-2.3114,0,0,0,-2.2742,-2.2746,-2.2759,-2.2773,-2.2815,-2.2891,-2.2908,-2.2948,-2.2964,-2.3013,-2.3017,-2.3117,-2.3118,-2.3113,-2.3114,-2.3136,0,0,0,-2.2718,-2.2754,-2.2758,-2.2804,-2.2814,-2.2888,-2.2907,-2.2964,-2.3006,-2.3015,-2.3117,-2.3118,-2.3112,-2.3113,-2.3135,-2.315,-2.3154,0,0,-2.2753,-2.2757,-2.2786,-2.2793,-2.2861,-2.2874,-2.2943,-2.3,-2.3023,-2.3085,-2.3088,-2.3113,-2.3114,-2.3135,-2.3189,-2.3193,0,0,0,-2.2791,-2.2811,-2.2833,-2.2871,-2.2915,-2.2953,-2.3001,-2.3023,-2.3077,-2.305,-2.3129,-2.3129,-2.3143,-2.3151,-2.3154,-2.3167,-2.3121,-2.3121,-2.3121,-2.2812,-2.2839,-2.2887,-2.2926,-2.2964,-2.3014,-2.3046,-2.3084,-2.3101,-2.3119,-2.3137,-2.3166,-2.3175,-2.3177,-2.319,-2.3148,-2.3148,-2.3148,-2.3148,-2.2864,-2.2897,-2.2919,-2.2973,-2.3002,-2.3049,-2.31,-2.311,-2.3158,-2.3155,-2.3168,-2.316,-2.318,-2.3193,-2.3148,-2.3148,-2.3148,-2.3148,-2.3148,-2.288,-2.29,-2.2925,-2.2984,-2.3027,-2.3066,-2.3111,-2.3137,-2.3161,-2.3175,-2.3196,-2.3196,-2.3199,-2.3183,-2.3184,-2.3184,-2.3184,-2.3184,-2.3184,-2.2885,-2.2914,-2.2949,-2.2999,-2.3027,-2.3068,-2.312,-2.3149,-2.3187,-2.3202,-2.3203,-2.3217,-2.3177,-2.3166,-2.3186,-2.3185,-2.3185,-2.3185,-2.3185,-2.2926,-2.2921,-2.2974,-2.3003,-2.3064,-2.3105,-2.3138,-2.3195,-2.3223,-2.3245,-2.3258,-2.3224,-2.3231,-2.3228,-2.3219,-2.3252,-2.3252,-2.3252,-2.3252,-2.2938,-2.2945,-2.3005,-2.3048,-2.3094,-2.3129,-2.319,-2.3231,-2.3273,-2.3292,-2.3292,-2.3282,-2.3279,-2.3288,-2.3284,-2.3276,-2.3322,-2.3322,-2.3322,-2.2965,-2.2977,-2.3022,-2.3062,-2.3113,-2.3156,-2.3214,-2.3264,-2.3311,-2.3326,-2.3308,-2.3305,-2.329,-2.3284,-2.3295,-2.3289,-2.3274,0,0]},{"header":{"parameterUnit":"m.s-1","parameterCategory":1,"la1":30.2992,"la2":30.254,"lo1":-89.0895,"lo2":-89.0443,"dy":0.0025,"dx":0.0025,"nx":19,"ny":19,"refTime":"2026-04-28T09:00:00:Z","depth":0,"parameterNumber":3,"parameterNumberName":"V-component_of_WINDS"},"data":[0,0,0,4.4759,4.4761,4.4852,4.4852,4.4959,4.496,0,0,0,0,0,0,0,0,0,0,0,4.4728,4.4728,4.4759,4.4761,4.4852,4.4852,4.4959,4.496,0,0,0,0,0,0,0,0,0,0,0,4.4727,4.4728,4.4729,4.4761,4.4852,4.4852,4.4958,4.4893,0,0,0,0,0,0,0,0,0,0,4.4806,4.4774,4.4728,4.4729,4.4762,4.4851,4.4852,4.489,4.4897,4.4914,0,4.493,0,4.4947,4.4966,4.4967,0,0,0,4.4763,4.4768,4.4796,4.4729,4.4762,4.4851,4.4811,4.4894,4.4902,4.4923,4.4931,4.4935,4.4948,4.4967,4.4968,4.5063,4.5063,0,0,4.4758,4.4741,4.4791,4.4801,4.4788,4.4808,4.4814,4.4899,4.4906,4.4932,4.4938,4.495,4.4968,4.4969,4.5062,4.5063,0,0,0,4.4742,4.4738,4.4764,4.4797,4.4814,4.4811,4.4818,4.4902,4.4912,4.4939,4.4951,4.4968,4.497,4.5062,4.5062,4.5064,0,0,0,4.4739,4.4728,4.4762,4.4752,4.4812,4.4859,4.4818,4.4906,4.4916,4.4951,4.4968,4.4971,4.5062,4.5062,4.5063,4.5067,0,0,0,4.4723,4.4726,4.4738,4.4751,4.479,4.4858,4.4874,4.4909,4.4924,4.4967,4.4971,4.5061,4.5062,4.5062,4.5066,4.5088,0,0,0,4.47,4.4736,4.4738,4.4783,4.4789,4.4858,4.4873,4.4925,4.4962,4.4969,4.5062,4.5062,4.5062,4.5065,4.5087,4.5105,4.5111,0,0,4.4736,4.474,4.4767,4.4772,4.4837,4.4846,4.4911,4.496,4.4978,4.5033,4.5035,4.5063,4.5066,4.5088,4.5145,4.5149,0,0,0,4.4773,4.4793,4.4814,4.485,4.4889,4.4924,4.4965,4.4983,4.5031,4.5003,4.5077,4.5079,4.5093,4.5102,4.5106,4.5119,4.5066,4.5066,4.5065,4.4799,4.4823,4.4871,4.4905,4.494,4.4983,4.5012,4.5044,4.5056,4.5073,4.509,4.5122,4.5132,4.5135,4.5149,4.51,4.51,4.51,4.51,4.4855,4.4888,4.4904,4.4957,4.4981,4.5025,4.5067,4.5074,4.5118,4.5111,4.5124,4.5115,4.5139,4.5152,4.51,4.51,4.51,4.51,4.51,4.4876,4.4896,4.4919,4.4974,4.5013,4.5046,4.5088,4.5108,4.5126,4.5139,4.516,4.516,4.5163,4.5147,4.5147,4.5148,4.5148,4.5148,4.5148,4.489,4.4915,4.495,4.4995,4.5022,4.5058,4.5102,4.5127,4.5161,4.5172,4.5172,4.5183,4.5137,4.5126,4.515,4.5149,4.5149,4.5149,4.5149,4.494,4.4932,4.4985,4.5011,4.5067,4.5105,4.513,4.5181,4.5204,4.5225,4.5233,4.5195,4.52,4.5197,4.5188,4.5227,4.5227,4.5227,4.5227,4.4959,4.4964,4.5023,4.5064,4.5106,4.5134,4.5192,4.5226,4.5259,4.5275,4.5272,4.5261,4.5257,4.5265,4.526,4.5252,4.5307,4.5307,4.5307,4.4992,4.5002,4.5048,4.5083,4.5128,4.5166,4.5221,4.5267,4.5303,4.5311,4.5289,4.5285,4.5268,4.5261,4.5269,4.5262,4.5248,0,0]}]]